| time (UTC) | temp F | wind direction | speed knots | gust knots | rain 1hr in | rain 24hr in | rain mn in | humidity % | barometer mb |
| 20260506095801 | 51 | 230 | 3.5 | 0.0 | 0.00 | 0.00 | 0.00 | 90 | 1005.8 |
| 20260506095702 | 51 | 230 | 3.5 | 0.0 | 0.00 | 0.00 | 0.00 | 90 | 1005.8 |
| 20260506095601 | 51 | 230 | 3.5 | 0.0 | 0.00 | 0.00 | 0.00 | 90 | 1005.8 |
| 20260506095502 | 51 | 242 | 3.5 | 0.0 | 0.00 | 0.00 | 0.00 | 90 | 1005.7 |
| 20260506095402 | 51 | 242 | 3.5 | 0.0 | 0.00 | 0.00 | 0.00 | 90 | 1005.7 |
| 20260506095305 | 51 | 235 | 3.5 | 0.0 | 0.00 | 0.00 | 0.00 | 90 | 1005.7 |
| 20260506095202 | 51 | 235 | 3.5 | 0.0 | 0.00 | 0.00 | 0.00 | 90 | 1005.7 |
| 20260506095101 | 51 | 235 | 3.5 | 0.0 | 0.00 | 0.00 | 0.00 | 90 | 1005.7 |
| 20260506095002 | 51 | 222 | 5.2 | 0.0 | 0.00 | 0.00 | 0.00 | 90 | 1005.7 |
| 20260506094901 | 51 | 222 | 5.2 | 0.0 | 0.00 | 0.00 | 0.00 | 90 | 1005.7 |
| 20260506094802 | 51 | 250 | 4.3 | 0.0 | 0.00 | 0.00 | 0.00 | 90 | 1005.7 |
| 20260506094701 | 51 | 250 | 4.3 | 0.0 | 0.00 | 0.00 | 0.00 | 90 | 1005.7 |
| 20260506094602 | 51 | 250 | 4.3 | 0.0 | 0.00 | 0.00 | 0.00 | 90 | 1005.7 |
| 20260506094502 | 51 | 250 | 4.3 | 0.0 | 0.00 | 0.00 | 0.00 | 90 | 1005.7 |
| 20260506094401 | 51 | 250 | 4.3 | 0.0 | 0.00 | 0.00 | 0.00 | 90 | 1005.7 |
| 20260506094302 | 51 | 230 | 3.5 | 0.0 | 0.00 | 0.00 | 0.00 | 90 | 1005.7 |
| 20260506094201 | 51 | 230 | 3.5 | 0.0 | 0.00 | 0.00 | 0.00 | 90 | 1005.6 |
| 20260506094102 | 51 | 230 | 3.5 | 0.0 | 0.00 | 0.00 | 0.00 | 90 | 1005.6 |
| 20260506094001 | 51 | 217 | 3.5 | 0.0 | 0.00 | 0.00 | 0.00 | 91 | 1005.6 |
| 20260506093902 | 51 | 217 | 3.5 | 0.0 | 0.00 | 0.00 | 0.00 | 91 | 1005.5 |
| 20260506093802 | 51 | 217 | 3.5 | 0.0 | 0.00 | 0.00 | 0.00 | 91 | 1005.6 |
| 20260506093702 | 51 | 217 | 3.5 | 0.0 | 0.00 | 0.00 | 0.00 | 91 | 1005.5 |
| 20260506093602 | 51 | 217 | 3.5 | 0.0 | 0.00 | 0.00 | 0.00 | 91 | 1005.5 |
| 20260506093502 | 51 | 230 | 3.5 | 0.0 | 0.00 | 0.00 | 0.00 | 91 | 1005.5 |
| 20260506093402 | 51 | 230 | 3.5 | 0.0 | 0.00 | 0.00 | 0.00 | 91 | 1005.5 |
| 20260506093301 | 51 | 230 | 3.5 | 0.0 | 0.00 | 0.00 | 0.00 | 91 | 1005.5 |
| 20260506093202 | 51 | 230 | 3.5 | 0.0 | 0.00 | 0.00 | 0.00 | 91 | 1005.5 |
| 20260506093101 | 51 | 230 | 3.5 | 0.0 | 0.00 | 0.00 | 0.00 | 91 | 1005.5 |
| 20260506093002 | 51 | 235 | 2.6 | 0.0 | 0.00 | 0.00 | 0.00 | 91 | 1005.6 |
| 20260506092901 | 51 | 235 | 2.6 | 0.0 | 0.00 | 0.00 | 0.00 | 91 | 1005.6 |
| 20260506092802 | 51 | 235 | 2.6 | 0.0 | 0.00 | 0.00 | 0.00 | 91 | 1005.6 |
| 20260506092702 | 51 | 240 | 0.0 | 0.0 | 0.00 | 0.00 | 0.00 | 91 | 1005.7 |
| 20260506092601 | 51 | 240 | 0.0 | 0.0 | 0.00 | 0.00 | 0.00 | 91 | 1005.7 |
| 20260506092502 | 51 | 247 | 0.0 | 0.0 | 0.00 | 0.00 | 0.00 | 91 | 1005.7 |
| 20260506092401 | 51 | 247 | 0.0 | 0.0 | 0.00 | 0.00 | 0.00 | 91 | 1005.7 |
| 20260506092302 | 51 | 247 | 0.0 | 0.0 | 0.00 | 0.00 | 0.00 | 91 | 1005.8 |
| 20260506092201 | 51 | 247 | 0.0 | 0.0 | 0.00 | 0.00 | 0.00 | 91 | 1005.7 |
| 20260506092102 | 51 | 247 | 0.0 | 0.0 | 0.00 | 0.00 | 0.00 | 91 | 1005.7 |
| 20260506092002 | 51 | 230 | 2.6 | 0.0 | 0.00 | 0.00 | 0.00 | 91 | 1005.7 |
| 20260506091901 | 51 | 230 | 2.6 | 0.0 | 0.00 | 0.00 | 0.00 | 91 | 1005.7 |
| 20260506091802 | 51 | 230 | 2.6 | 0.0 | 0.00 | 0.00 | 0.00 | 91 | 1005.7 |
| 20260506091702 | 51 | 212 | 0.0 | 0.0 | 0.00 | 0.00 | 0.00 | 91 | 1005.7 |
| 20260506091602 | 51 | 212 | 0.0 | 0.0 | 0.00 | 0.00 | 0.00 | 91 | 1005.7 |
| 20260506091501 | 50 | 220 | 0.0 | 0.0 | 0.00 | 0.00 | 0.00 | 91 | 1005.7 |
| 20260506091402 | 50 | 220 | 0.0 | 0.0 | 0.00 | 0.00 | 0.00 | 91 | 1005.6 |
| 20260506091302 | 50 | 220 | 0.0 | 0.0 | 0.00 | 0.00 | 0.00 | 91 | 1005.6 |
| 20260506091201 | 50 | 220 | 0.0 | 0.0 | 0.00 | 0.00 | 0.00 | 91 | 1005.6 |
| 20260506091102 | 50 | 220 | 0.0 | 0.0 | 0.00 | 0.00 | 0.00 | 91 | 1005.6 |
| 20260506091001 | 50 | 220 | 0.0 | 0.0 | 0.00 | 0.00 | 0.00 | 91 | 1005.6 |
| 20260506090902 | 50 | 225 | 3.5 | 0.0 | 0.00 | 0.00 | 0.00 | 91 | 1005.6 |
| 20260506090801 | 50 | 225 | 3.5 | 0.0 | 0.00 | 0.00 | 0.00 | 91 | 1005.6 |
| 20260506090702 | 50 | 220 | 3.5 | 0.0 | 0.00 | 0.00 | 0.00 | 91 | 1005.6 |
| 20260506090601 | 50 | 220 | 3.5 | 0.0 | 0.00 | 0.00 | 0.00 | 91 | 1005.6 |
| 20260506090502 | 50 | 220 | 3.5 | 0.0 | 0.00 | 0.00 | 0.00 | 91 | 1005.6 |
| 20260506090402 | 50 | 227 | 3.5 | 0.0 | 0.00 | 0.00 | 0.00 | 91 | 1005.6 |
| 20260506090301 | 50 | 227 | 3.5 | 0.0 | 0.00 | 0.00 | 0.00 | 91 | 1005.6 |
| 20260506090202 | 50 | 227 | 3.5 | 0.0 | 0.00 | 0.00 | 0.00 | 91 | 1005.6 |
| 20260506090002 | 50 | 220 | 3.5 | 0.0 | 0.00 | 0.00 | 0.00 | 91 | 1005.6 |
| 20260506085901 | 50 | 220 | 3.5 | 0.0 | 0.00 | 0.00 | 0.00 | 91 | 1005.5 |
| 20260506085802 | 50 | 217 | 0.0 | 0.0 | 0.00 | 0.00 | 0.00 | 91 | 1005.6 |
| 20260506085702 | 50 | 217 | 0.0 | 0.0 | 0.00 | 0.00 | 0.00 | 91 | 1005.5 |
| 20260506085602 | 50 | 235 | 4.3 | 0.0 | 0.00 | 0.00 | 0.00 | 91 | 1005.5 |
| 20260506085502 | 50 | 235 | 4.3 | 0.0 | 0.00 | 0.00 | 0.00 | 91 | 1005.6 |
| 20260506085401 | 50 | 222 | 2.6 | 0.0 | 0.00 | 0.00 | 0.00 | 91 | 1005.6 |
| 20260506085302 | 50 | 222 | 2.6 | 0.0 | 0.00 | 0.00 | 0.00 | 91 | 1005.6 |
| 20260506085201 | 50 | 222 | 2.6 | 0.0 | 0.00 | 0.00 | 0.00 | 91 | 1005.6 |
| 20260506085102 | 50 | 225 | 3.5 | 0.0 | 0.00 | 0.00 | 0.00 | 91 | 1005.6 |
| 20260506085001 | 50 | 225 | 3.5 | 0.0 | 0.00 | 0.00 | 0.00 | 91 | 1005.5 |
| 20260506084902 | 50 | 207 | 3.5 | 0.0 | 0.00 | 0.00 | 0.00 | 91 | 1005.5 |
| 20260506084801 | 50 | 207 | 3.5 | 0.0 | 0.00 | 0.00 | 0.00 | 91 | 1005.5 |
| 20260506084702 | 50 | 207 | 3.5 | 0.0 | 0.00 | 0.00 | 0.00 | 91 | 1005.5 |
| 20260506084602 | 50 | 227 | 0.0 | 0.0 | 0.00 | 0.00 | 0.00 | 91 | 1005.5 |
| 20260506084502 | 50 | 227 | 0.0 | 0.0 | 0.00 | 0.00 | 0.00 | 91 | 1005.5 |
| 20260506084402 | 50 | 227 | 0.0 | 0.0 | 0.00 | 0.00 | 0.00 | 91 | 1005.5 |
| 20260506084301 | 50 | 227 | 0.0 | 0.0 | 0.00 | 0.00 | 0.00 | 91 | 1005.4 |
| 20260506084202 | 50 | 217 | 3.5 | 0.0 | 0.00 | 0.00 | 0.00 | 91 | 1005.4 |
| 20260506084101 | 50 | 217 | 3.5 | 0.0 | 0.00 | 0.00 | 0.00 | 91 | 1005.4 |
| 20260506084002 | 50 | 217 | 3.5 | 0.0 | 0.00 | 0.00 | 0.00 | 91 | 1005.5 |
| 20260506083901 | 50 | 222 | 0.0 | 0.0 | 0.00 | 0.00 | 0.00 | 91 | 1005.4 |
| 20260506083802 | 50 | 222 | 0.0 | 0.0 | 0.00 | 0.00 | 0.00 | 91 | 1005.4 |
| 20260506083702 | 50 | 222 | 0.0 | 0.0 | 0.00 | 0.00 | 0.00 | 91 | 1005.4 |
| 20260506083601 | 50 | 222 | 0.0 | 0.0 | 0.00 | 0.00 | 0.00 | 91 | 1005.5 |
| 20260506083502 | 50 | 222 | 0.0 | 0.0 | 0.00 | 0.00 | 0.00 | 91 | 1005.5 |
| 20260506083401 | 50 | 222 | 3.5 | 0.0 | 0.00 | 0.00 | 0.00 | 91 | 1005.5 |
| 20260506083302 | 50 | 222 | 3.5 | 0.0 | 0.00 | 0.00 | 0.00 | 91 | 1005.4 |
| 20260506083201 | 50 | 210 | 5.2 | 0.0 | 0.00 | 0.00 | 0.00 | 91 | 1005.4 |
| 20260506083102 | 50 | 205 | 2.6 | 0.0 | 0.00 | 0.00 | 0.00 | 91 | 1005.4 |
| 20260506083002 | 50 | 205 | 2.6 | 0.0 | 0.00 | 0.00 | 0.00 | 91 | 1005.4 |
| 20260506082901 | 50 | 217 | 3.5 | 0.0 | 0.00 | 0.00 | 0.00 | 91 | 1005.4 |
| 20260506082802 | 50 | 217 | 3.5 | 0.0 | 0.00 | 0.00 | 0.00 | 91 | 1005.4 |
| 20260506082701 | 50 | 217 | 3.5 | 0.0 | 0.00 | 0.00 | 0.00 | 91 | 1005.4 |
| 20260506082602 | 50 | 210 | 3.5 | 0.0 | 0.00 | 0.00 | 0.00 | 91 | 1005.4 |
| 20260506082501 | 50 | 210 | 3.5 | 0.0 | 0.00 | 0.00 | 0.00 | 91 | 1005.3 |
| 20260506082402 | 50 | 210 | 2.6 | 0.0 | 0.00 | 0.00 | 0.00 | 91 | 1005.3 |
| 20260506082304 | 50 | 210 | 2.6 | 0.0 | 0.00 | 0.00 | 0.00 | 91 | 1005.3 |
| 20260506082202 | 50 | 220 | 0.0 | 0.0 | 0.00 | 0.00 | 0.00 | 91 | 1005.4 |
| 20260506082102 | 50 | 220 | 0.0 | 0.0 | 0.00 | 0.00 | 0.00 | 91 | 1005.3 |
| 20260506082002 | 50 | 220 | 0.0 | 0.0 | 0.00 | 0.00 | 0.00 | 91 | 1005.3 |
| 20260506081902 | 50 | 215 | 0.0 | 0.0 | 0.00 | 0.00 | 0.00 | 91 | 1005.3 |
| 20260506081801 | 50 | 215 | 0.0 | 0.0 | 0.00 | 0.00 | 0.00 | 91 | 1005.3 |
| 20260506081702 | 50 | 215 | 0.0 | 0.0 | 0.00 | 0.00 | 0.00 | 91 | 1005.3 |
| 20260506081601 | 50 | 205 | 2.6 | 0.0 | 0.00 | 0.00 | 0.00 | 91 | 1005.3 |
| 20260506081502 | 50 | 205 | 2.6 | 0.0 | 0.00 | 0.00 | 0.00 | 91 | 1005.3 |
| 20260506081401 | 50 | 205 | 2.6 | 0.0 | 0.00 | 0.00 | 0.00 | 91 | 1005.3 |
| 20260506081302 | 50 | 207 | 3.5 | 0.0 | 0.00 | 0.00 | 0.00 | 91 | 1005.3 |
| 20260506081202 | 50 | 207 | 3.5 | 0.0 | 0.00 | 0.00 | 0.00 | 91 | 1005.3 |
| 20260506081102 | 50 | 190 | 5.2 | 0.0 | 0.00 | 0.00 | 0.00 | 91 | 1005.1 |
| 20260506081002 | 50 | 190 | 5.2 | 0.0 | 0.00 | 0.00 | 0.00 | 91 | 1005.1 |
| 20260506080901 | 50 | 190 | 3.5 | 0.0 | 0.00 | 0.00 | 0.00 | 91 | 1005.1 |
| 20260506080802 | 50 | 190 | 3.5 | 0.0 | 0.00 | 0.00 | 0.00 | 91 | 1005.3 |
| 20260506080701 | 50 | 190 | 3.5 | 0.0 | 0.00 | 0.00 | 0.00 | 91 | 1005.3 |
| 20260506080603 | 50 | 190 | 3.5 | 0.0 | 0.00 | 0.00 | 0.00 | 91 | 1005.3 |
| 20260506080502 | 50 | 190 | 3.5 | 0.0 | 0.00 | 0.00 | 0.00 | 91 | 1005.3 |
| 20260506080402 | 50 | 190 | 3.5 | 0.0 | 0.00 | 0.00 | 0.00 | 91 | 1005.1 |
| 20260506080302 | 50 | 200 | 2.6 | 0.0 | 0.00 | 0.00 | 0.00 | 91 | 1005.1 |
| 20260506080202 | 50 | 212 | 0.0 | 0.0 | 0.00 | 0.00 | 0.00 | 91 | 1005.1 |
| 20260506073501 | 49 | 202 | 0.0 | 0.0 | 0.00 | 0.00 | 0.00 | 92 | 1005.0 |
| 20260506073402 | 49 | 202 | 0.0 | 0.0 | 0.00 | 0.00 | 0.00 | 92 | 1005.0 |
| 20260506073302 | 49 | 202 | 0.0 | 0.0 | 0.00 | 0.00 | 0.00 | 92 | 1005.0 |
| 20260506073202 | 49 | 202 | 0.0 | 0.0 | 0.00 | 0.00 | 0.00 | 92 | 1005.0 |
| 20260506073102 | 49 | 202 | 0.0 | 0.0 | 0.00 | 0.00 | 0.00 | 92 | 1005.1 |
| 20260506073002 | 49 | 207 | 0.0 | 0.0 | 0.00 | 0.00 | 0.00 | 92 | 1005.1 |
| 20260506072901 | 49 | 207 | 0.0 | 0.0 | 0.00 | 0.00 | 0.00 | 92 | 1005.0 |
| 20260506072802 | 49 | 220 | 0.0 | 0.0 | 0.00 | 0.00 | 0.00 | 92 | 1005.1 |
| 20260506072701 | 49 | 220 | 0.0 | 0.0 | 0.00 | 0.00 | 0.00 | 92 | 1005.1 |
| 20260506072602 | 49 | 225 | 0.0 | 0.0 | 0.00 | 0.00 | 0.00 | 92 | 1005.0 |
| 20260506072501 | 49 | 225 | 0.0 | 0.0 | 0.00 | 0.00 | 0.00 | 92 | 1005.1 |
| 20260506072402 | 49 | 225 | 0.0 | 0.0 | 0.00 | 0.00 | 0.00 | 92 | 1005.0 |
| 20260506072305 | 49 | 225 | 0.0 | 0.0 | 0.00 | 0.00 | 0.00 | 92 | 1005.1 |
| 20260506072201 | 49 | 225 | 0.0 | 0.0 | 0.00 | 0.00 | 0.00 | 92 | 1005.1 |
| 20260506072003 | 49 | 215 | 0.0 | 0.0 | 0.00 | 0.00 | 0.00 | 92 | 1005.1 |
| 20260506071903 | 54 | 227 | 5.2 | 0.0 | 0.00 | 0.00 | 0.00 | 88 | 1008.2 |